Location: Unspecified
(0.0000°N, 0.0000°E)
Time: 15:45:13
(UTC+00:00)

Envisat - Pass Details

Date: 10 December 2018
Orbit: 764 x 766 km, 98.2° (Epoch: 13 December)

Event Time Altitude Azimuth Distance (km) Brightness Sun altitude
Rises 19:49:13 0° 184° (S) 3,231 6.6 -26.6°
Reaches altitude 10° 19:51:42 10° 193° (SSW) 2,302 5.9 -27.1°
Maximum altitude 19:56:17 35° 258° (WSW) 1,225 4.5 -28.2°
Drops below altitude 10° 20:00:51 10° 323° (NW) 2,293 5.6 -29.2°
Sets 20:03:19 0° 332° (NNW) 3,215 6.3 -29.7°
